Regional Weather Roundup
Issued by NWS Goodland, KS

Home | Current Version | Previous Version | Graphics & Text | Print | Product List | Glossary On
Versions: 1 2 3 4 5 6 7 8 9 10 11 12 13 14 15 16 17 18 19 20 21 22 23 24 25 26 27 28 29 30 31 32 33 34 35 36 37 38 39 40 41 42 43 44 45 46 47 48 49 50
963
ASUS43 KGLD 272108
RWRGLD

GOODLAND FORECAST AREA HOURLY WEATHER ROUNDUP
NATIONAL WEATHER SERVICE GOODLAND KS
300 PM MDT WED JUL 27 2016

...OFFICIAL OBSERVATIONS...

CITY           SKY/WX    TMP DP  RH WIND       PRES   REMARKS
GOODLAND KS    SUNNY     89  55  31 SE9       30.08F
HILL CITY KS   CLOUDY    86  70  58 SE6       30.01F
IMPERIAL NEB   SUNNY     86  59  39 VRB3      30.07S
MCCOOK NEB     SUNNY     86  65  49 E10       30.04F
AKRON CO       SUNNY     86  61  42 SE10      30.13F
BURLINGTON CO  SUNNY     87  59  38 E10       30.12F
LIMON CO       SUNNY     93  42  17 VRB7      30.16F
$$

...UNOFFICIAL OBSERVATIONS...

CITY           SKY/WX    TMP DP  RH WIND       PRES   REMARKS
COLBY KS       MOSUNNY   91  64  40 E7        30.05F
LENORA KS        N/A     89  32  13 MISG        N/A
NORTON KS      SUNNY     90  57  33 E10       30.02
SHARON SPRINGS   N/A     90  69  49 NE9         N/A
KIT CARSON CO    N/A     91  57  31 MISG        N/A
YUMA CO          N/A     84  64  51 SE10G18     N/A
$$




USA.gov is the U.S. government's official web portal to all federal, state and local government web resources and services.